星链-35747(STARLINK-35747)

导读 | 豆包AI

STARLINK-35747是美国SpaceX公司星链(Starlink)星座的卫星,于2025年10月28日发射升空。作为星链项目的组成部分,它运行在近地轨道,旨在为全球偏远、缺乏传统网络基础设施的地区提供低延迟、高速宽带互联网服务。星链计划最终部署数万颗卫星,该卫星的入轨进一步扩充了星座规模,提升了全球网络覆盖与服务可靠性,助力实现全天候、广覆盖的卫星互联网接入。

基本信息
目录编号:
66207
目录名称:
STARLINK-35747
国际标识:
2025-244B
轨道中心:
EARTH
卫星名称:
星链-35747
卫星全名:
星链-35747(STARLINK-35747)
卫星状态:
在轨 (已飞行209 天)
发射日期:
2025-10-28 UTC
国别 :
美国 (US)
星等 :
--
轨道信息
数据来源 国际轨道数据
星历时间: 2026-05-25T07:03:04+0800
13小时前
查看轨道信息
半长轴: 6840.805km
偏心率: 0.0001263
轨道倾角: 53.159°
近地点辐角 96.740°
升交点赤经 235.825°
平近点角 263.374°
近地点: 461.804km
远地点: 463.532km
周期: 93.847分钟
每日圈数: 15.344119
详细信息
固有亮度:
5
最大亮度:
2.5
卫星平台:
Starlink V1.0
覆盖范围:
全球
运营商:
太空探索技术公司
运营商所在国:
美国
制造商(研发单位):
太空探索技术公司
制造商所在国:
美国
使用方式:
暂无
卫星简介
Starlink 计划是 SpaceX 推出的全球卫星互联网项目,通过发射低轨道卫星,为全球尤其是偏远地区提供高速、低延迟的互联网服务。自 2019 年起,Starlink 已部署数千颗卫星,旨在缩小全球数字鸿沟,推动互联网普及。该项目还为军事、航空等行业提供通信支持,带来广泛经济效益。
2D轨道图
3D轨道图
轨道高度分析图
轨道倾角分析图
轨道综合分析图
查看轨道综合分析图